Wind_Speed
18 19 19 19 20 20 20 21 21 22 23 25 26 26 27 28 28 27 27 28 27 26 27 27 27 27 27 28 28 29 29 28 29 29 29 28 28 28 28 28 27 27 28
19 19 19 19 19 20 21 21 22 23 24 25 26 27 28 28 28 27 27 27 26 26 26 26 26 27 27 28 28 27 28 27 28 28 28 28 29 29 28 28 27 28 29
20 20 20 20 20 20 21 21 22 23 25 26 26 27 27 28 27 26 26 26 26 26 26 25 25 26 26 26 26 26 26 26 26 27 27 28 28 28 29 29 28 27 28
21 21 20 21 21 21 22 22 22 23 25 26 26 27 27 27 27 26 26 26 26 26 26 25 25 25 25 26 26 26 26 25 25 26 27 28 28 28 28 28 28 27 27
20 21 22 21 22 22 22 23 23 24 24 25 27 27 27 27 27 25 25 25 25 26 25 25 24 24 25 25 25 25 25 25 25 26 27 27 27 27 26 26 27 27 26
21 22 22 22 22 22 23 23 23 24 24 26 27 27 27 27 27 26 25 25 24 24 24 24 24 23 23 23 23 24 25 25 25 25 26 26 26 26 25 24 24 25 26
21 21 22 22 23 23 23 23 23 24 25 26 26 26 27 27 27 26 25 24 24 23 23 23 23 22 22 21 21 22 22 23 23 23 24 24 24 25 25 24 23 23 24
21 21 22 22 21 22 23 23 23 23 25 25 26 26 26 27 26 24 23 23 22 22 22 22 21 20 20 20 19 21 21 20 20 20 21 21 22 23 23 23 23 23 23
20 20 21 20 20 21 22 22 22 22 24 25 26 26 26 25 24 23 22 22 20 20 21 21 20 19 19 18 19 19 18 18 17 17 18 19 19 20 20 21 22 23 23
20 19 19 19 20 20 20 20 21 21 23 25 25 25 24 22 22 22 21 20 18 19 20 20 20 19 18 17 17 16 16 15 14 15 16 16 17 17 18 19 20 21 22
19 19 18 18 19 19 19 20 20 21 22 23 23 23 22 21 21 20 19 18 18 18 19 19 19 17 17 16 16 15 14 13 13 12 12 13 14 15 16 18 19 20 21
17 16 17 18 19 19 18 18 19 20 21 20 21 21 20 20 20 19 18 17 17 18 18 18 18 17 16 16 15 14 13 11 10 9 10 10 11 12 14 16 17 18 18
16 15 16 17 18 17 17 17 18 18 18 18 19 19 19 19 18 18 18 17 17 17 17 18 18 17 16 15 15 14 11 10 10 10 10 10 11 12 13 14 15 16 17
15 14 15 15 16 16 16 17 17 17 17 17 18 18 19 18 18 18 17 17 16 17 17 18 17 16 16 15 14 12 11 10 10 10 10 10 11 11 12 13 13 15 15
14 13 14 15 15 16 16 16 16 16 16 16 17 18 19 18 18 17 17 17 17 17 17 17 16 15 15 15 13 12 11 11 11 11 11 11 11 12 11 11 12 13 14
13 13 14 14 15 16 16 16 16 16 16 16 17 18 18 17 17 17 18 18 18 18 17 17 16 15 15 15 13 12 12 12 12 12 12 11 11 11 11 11 11 12 13
14 14 14 15 16 16 17 16 16 16 16 17 17 17 17 17 17 18 19 18 18 18 17 17 16 15 15 15 14 14 13 12 12 12 12 12 11 10 11 11 12 12 13
14 15 16 15 15 15 15 15 15 16 16 17 17 17 18 18 19 19 19 19 18 17 17 17 16 16 16 15 15 14 13 13 13 13 13 12 11 10 10 11 12 13 13
14 15 15 15 15 15 14 15 15 15 15 16 17 17 17 17 18 18 18 18 18 17 17 16 16 17 16 16 15 15 14 14 13 13 12 11 10 10 11 11 11 12 14
15 14 14 15 15 15 14 14 14 15 15 15 16 16 16 17 17 18 19 19 18 17 17 16 17 17 17 17 17 17 16 15 13 12 12 11 11 11 11 12 12 13 14
15 15 15 16 15 14 14 14 14 14 14 14 15 15 16 16 17 18 18 18 18 17 17 17 17 18 18 18 17 18 17 14 13 12 11 11 11 11 12 12 13 13 14
16 17 17 16 16 14 14 14 14 13 14 14 14 15 16 17 17 17 17 17 16 17 17 17 18 18 18 18 18 17 16 15 13 12 10 10 11 12 13 13 14 14 14
17 18 18 16 16 15 14 14 14 13 13 14 15 16 16 17 16 16 16 15 16 16 17 18 18 18 18 18 18 17 16 16 14 12 11 10 11 12 13 14 14 14 14
19 19 18 17 17 16 15 15 14 14 14 14 15 15 16 16 16 16 15 15 15 16 17 17 18 18 18 18 18 17 16 16 15 13 12 11 11 13 13 14 14 14 14
20 20 19 18 17 16 15 15 15 14 13 13 14 14 15 15 16 15 15 15 15 16 17 17 18 18 17 17 18 17 17 16 15 14 13 11 11 12 13 14 14 14 15
21 20 19 18 17 16 15 15 15 14 13 13 13 14 14 14 15 14 14 14 15 16 16 17 17 17 17 18 18 17 17 15 14 14 13 13 12 13 14 14 14 15 16
Wind_Direction
300 297 298 300 299 298 301 302 302 302 304 305 307 309 309 311 310 308 306 303 301 299 297 293 290 288 284 283 283 282 280 277 273 271 268 266 264 264 264 264 265 262 260
303 301 299 300 301 300 300 300 302 304 307 309 309 310 311 311 312 310 308 306 303 301 298 295 291 288 286 285 283 283 282 278 275 272 269 267 265 264 263 264 263 263 261
304 303 304 305 305 303 302 302 304 307 309 310 311 312 312 313 313 313 311 309 306 305 302 299 294 290 288 288 287 284 283 281 276 272 270 267 266 263 262 263 263 264 263
309 309 308 308 307 305 302 304 305 307 309 311 313 314 315 315 315 314 312 310 308 307 304 301 298 294 290 290 289 286 284 280 277 273 270 268 267 264 263 261 262 260 262
309 309 309 308 308 307 306 308 309 310 312 314 316 316 317 316 315 314 313 312 310 309 307 306 304 300 295 293 290 286 285 281 277 274 272 270 268 265 261 261 261 260 262
308 307 306 306 308 308 307 307 310 312 311 313 314 315 315 315 314 314 313 313 313 312 310 309 308 305 301 296 292 287 285 281 278 275 273 271 268 264 260 260 260 260 261
306 306 306 306 308 308 308 309 310 311 312 314 314 315 315 314 315 315 315 315 315 314 313 311 309 307 304 300 296 291 288 283 280 278 275 270 268 264 261 259 260 258 259
305 304 304 305 308 309 309 311 311 311 314 316 316 317 316 315 316 315 316 315 315 316 317 317 314 312 308 305 300 297 292 288 284 280 275 271 266 265 263 261 259 257 258
309 305 307 308 311 312 312 313 313 314 315 316 317 318 318 318 318 317 316 315 315 320 323 324 320 316 312 309 307 305 300 295 289 284 280 274 269 266 263 262 261 258 259
312 312 312 314 317 317 319 319 318 317 318 319 320 321 322 322 322 319 318 317 318 323 327 329 327 322 318 316 315 311 308 301 294 290 285 278 272 267 264 263 263 259 260
312 313 316 317 320 321 321 321 322 322 325 327 328 328 328 328 326 325 325 323 321 324 327 330 333 331 328 324 322 317 313 309 303 296 289 284 278 274 271 267 266 263 263
314 316 318 320 321 322 322 324 326 327 330 333 336 336 337 335 334 335 334 331 328 328 330 334 335 333 332 331 331 326 322 316 311 304 302 293 286 282 281 277 270 266 266
316 316 319 323 326 327 327 328 330 333 336 339 341 342 342 342 342 342 340 338 334 335 335 334 335 336 336 335 335 333 334 330 324 318 310 302 298 292 287 284 277 272 271
319 321 325 329 333 334 335 335 335 338 339 341 343 345 348 349 350 348 347 344 340 338 338 336 335 338 340 336 334 337 340 339 333 326 320 316 314 305 295 287 282 279 276
322 322 325 329 333 335 338 339 337 339 341 344 346 349 351 353 354 354 350 348 347 345 344 342 340 340 340 340 342 342 339 335 331 326 321 318 316 310 307 301 291 286 282
321 323 325 327 330 333 336 339 340 341 343 344 347 350 352 352 353 353 352 350 349 349 347 345 343 344 344 343 341 341 336 333 330 327 323 321 317 312 310 309 307 303 297
313 318 321 324 328 331 334 337 337 341 343 345 348 351 352 352 352 352 353 352 349 348 347 348 349 349 347 345 343 343 339 336 333 327 323 321 317 313 313 313 315 313 309
307 310 315 319 323 329 333 335 338 341 345 346 347 347 348 349 350 351 352 352 352 351 352 354 353 350 348 348 347 344 342 339 337 334 332 327 323 321 321 320 319 321 320
299 306 313 318 321 325 328 332 336 339 342 345 347 348 348 349 350 352 352 353 353 352 353 355 355 353 352 351 348 345 341 338 338 339 339 338 336 331 330 328 327 325 326
297 303 309 314 317 320 322 327 331 333 337 342 345 349 350 349 350 351 353 354 354 354 354 353 352 352 352 351 349 347 343 341 341 342 342 340 339 335 334 335 333 329 328
295 300 304 307 308 310 314 319 323 328 334 338 341 343 346 348 348 349 350 353 356 357 356 353 352 352 352 350 350 349 348 346 345 344 346 346 345 341 339 337 336 331 331
292 297 299 301 302 303 308 312 313 319 327 333 336 339 340 342 345 346 349 352 356 357 356 355 353 354 353 353 353 352 351 350 348 346 344 345 344 341 343 344 343 341 338
289 293 296 298 300 300 302 307 310 314 320 325 329 331 334 337 340 343 346 350 352 352 352 352 352 353 352 352 353 353 352 351 348 346 344 347 350 348 349 350 347 346 344
287 290 294 298 298 299 299 303 308 313 316 319 323 327 330 333 335 339 343 346 348 349 349 350 351 352 352 352 353 355 355 354 351 349 349 350 349 349 351 351 348 346 344
283 285 290 293 293 294 296 299 303 307 311 315 319 324 328 330 332 334 337 342 346 348 348 350 351 352 352 353 354 355 354 353 352 351 349 347 346 346 347 348 347 347 348
281 282 284 285 287 289 293 295 295 302 306 311 315 318 322 325 329 333 336 339 343 346 346 347 348 348 350 352 353 354 355 355 354 352 352 351 347 344 344 345 345 345 345
Height
5836 5834 5832 5830 5828 5826 5825 5823 5821 5819 5817 5815 5812 5809 5806 5802 5798 5794 5791 5788 5785 5782 5780 5777 5775 5772 5771 5769 5767 5766 5765 5764 5764 5764 5764 5764 5764 5766 5766 5767 5767 5768 5769
5832 5830 5828 5825 5823 5822 5820 5818 5816 5814 5811 5809 5806 5803 5800 5796 5792 5789 5785 5782 5778 5775 5773 5770 5767 5765 5764 5762 5759 5758 5757 5756 5755 5756 5756 5757 5758 5757 5758 5759 5760 5761 5761
5829 5826 5824 5821 5819 5817 5815 5813 5811 5808 5806 5803 5800 5797 5793 5790 5786 5783 5779 5775 5772 5769 5766 5763 5761 5758 5756 5754 5752 5750 5749 5749 5748 5748 5748 5749 5750 5750 5750 5751 5752 5753 5753
5825 5823 5820 5817 5815 5813 5810 5808 5805 5803 5800 5797 5794 5791 5788 5784 5781 5777 5773 5770 5767 5763 5760 5757 5754 5751 5749 5747 5745 5743 5742 5741 5740 5740 5740 5740 5741 5741 5743 5743 5744 5745 5746
5822 5819 5816 5814 5811 5808 5805 5803 5800 5797 5794 5791 5788 5785 5782 5778 5775 5772 5768 5765 5761 5758 5754 5751 5748 5745 5742 5740 5738 5736 5735 5733 5733 5732 5732 5732 5732 5733 5734 5735 5736 5737 5738
5818 5815 5813 5809 5806 5804 5801 5798 5795 5793 5789 5786 5783 5779 5776 5773 5769 5766 5763 5759 5756 5752 5749 5745 5742 5739 5736 5733 5730 5729 5727 5726 5725 5724 5724 5724 5724 5725 5726 5727 5728 5729 5731
5814 5811 5808 5805 5802 5799 5796 5793 5790 5787 5784 5781 5777 5774 5770 5767 5763 5760 5757 5754 5750 5747 5743 5740 5736 5732 5729 5726 5724 5722 5720 5719 5718 5717 5716 5716 5717 5718 5719 5720 5721 5723 5725
5810 5807 5804 5801 5798 5795 5792 5789 5786 5783 5779 5776 5772 5768 5764 5761 5757 5754 5751 5748 5745 5742 5739 5735 5731 5727 5723 5720 5718 5716 5714 5712 5711 5710 5710 5709 5710 5711 5712 5713 5715 5716 5718
5806 5803 5799 5796 5794 5791 5787 5784 5781 5778 5774 5771 5767 5763 5759 5755 5751 5748 5745 5743 5740 5737 5734 5730 5726 5722 5719 5716 5713 5711 5708 5706 5705 5704 5704 5703 5704 5705 5706 5706 5708 5710 5711
5802 5799 5796 5793 5790 5786 5783 5780 5776 5774 5770 5766 5762 5758 5754 5751 5747 5744 5741 5739 5736 5733 5730 5727 5723 5719 5715 5712 5709 5707 5704 5702 5701 5700 5699 5699 5699 5699 5700 5701 5701 5702 5704
5798 5795 5792 5789 5786 5782 5779 5776 5773 5770 5767 5762 5758 5755 5751 5747 5744 5741 5738 5735 5733 5730 5727 5724 5720 5716 5713 5709 5706 5704 5701 5699 5697 5696 5695 5694 5694 5694 5695 5695 5695 5696 5697
5795 5792 5789 5786 5783 5779 5776 5774 5771 5767 5764 5760 5756 5752 5749 5745 5742 5738 5735 5733 5730 5727 5725 5721 5717 5714 5710 5707 5704 5700 5698 5696 5694 5693 5692 5691 5690 5690 5690 5689 5689 5690 5691
5792 5789 5787 5783 5780 5777 5774 5771 5768 5765 5762 5758 5755 5751 5747 5744 5740 5737 5734 5731 5728 5725 5722 5719 5715 5712 5708 5705 5701 5698 5696 5693 5692 5690 5689 5688 5687 5686 5685 5685 5685 5685 5685
5790 5787 5785 5782 5779 5776 5773 5769 5766 5763 5760 5757 5754 5750 5746 5742 5739 5736 5733 5730 5726 5723 5720 5716 5713 5710 5706 5703 5700 5697 5694 5692 5690 5688 5687 5685 5684 5682 5681 5680 5680 5679 5679
5788 5785 5783 5780 5778 5774 5771 5768 5765 5762 5759 5756 5753 5749 5745 5742 5738 5735 5732 5729 5725 5721 5718 5715 5711 5708 5705 5701 5698 5695 5693 5691 5689 5686 5684 5682 5680 5679 5678 5676 5675 5675 5674
5786 5784 5781 5779 5776 5773 5770 5767 5764 5761 5758 5755 5752 5748 5745 5741 5738 5734 5731 5727 5724 5720 5717 5713 5710 5707 5704 5700 5697 5694 5692 5689 5687 5684 5682 5679 5677 5676 5675 5673 5672 5671 5670
5784 5782 5780 5777 5774 5771 5768 5766 5763 5760 5757 5754 5750 5747 5744 5740 5737 5734 5730 5727 5723 5719 5716 5712 5709 5706 5703 5699 5696 5693 5690 5687 5685 5682 5680 5677 5675 5674 5672 5671 5669 5668 5666
5782 5780 5777 5775 5772 5770 5767 5764 5762 5759 5756 5753 5749 5746 5743 5740 5737 5733 5730 5726 5722 5718 5715 5712 5708 5705 5702 5698 5695 5692 5689 5686 5683 5680 5678 5675 5673 5672 5670 5669 5667 5665 5663
5779 5777 5775 5773 5771 5768 5765 5763 5760 5757 5755 5752 5749 5745 5742 5739 5736 5732 5729 5725 5721 5718 5715 5712 5708 5705 5701 5698 5694 5691 5687 5684 5681 5678 5676 5674 5671 5670 5668 5666 5665 5663 5661
5776 5774 5772 5770 5768 5766 5763 5761 5759 5756 5753 5751 5748 5745 5741 5738 5735 5732 5728 5725 5721 5718 5714 5711 5708 5704 5701 5697 5693 5689 5686 5682 5679 5677 5674 5672 5670 5668 5666 5664 5663 5661 5659
5773 5771 5769 5767 5765 5763 5761 5759 5757 5754 5752 5749 5747 5744 5741 5738 5735 5731 5728 5724 5721 5717 5714 5711 5708 5704 5700 5696 5692 5688 5684 5681 5678 5675 5673 5671 5669 5667 5665 5663 5661 5658 5656
5769 5767 5766 5764 5762 5760 5758 5756 5754 5752 5750 5747 5745 5743 5740 5737 5734 5731 5727 5724 5721 5718 5714 5711 5707 5704 5699 5695 5691 5687 5684 5680 5677 5674 5672 5670 5668 5665 5663 5661 5658 5656 5654
5764 5763 5761 5760 5758 5756 5755 5753 5751 5749 5747 5745 5743 5741 5738 5735 5732 5729 5726 5723 5720 5717 5714 5710 5707 5703 5699 5695 5691 5687 5683 5679 5676 5673 5671 5669 5667 5664 5662 5659 5657 5654 5652
5759 5758 5757 5756 5754 5753 5751 5750 5748 5747 5745 5743 5741 5738 5736 5733 5730 5728 5725 5722 5719 5716 5713 5710 5706 5702 5698 5694 5690 5686 5683 5679 5676 5672 5670 5668 5666 5663 5661 5658 5655 5653 5650
5754 5753 5752 5751 5750 5749 5747 5746 5745 5743 5741 5740 5738 5736 5733 5731 5728 5726 5723 5721 5718 5715 5712 5708 5705 5701 5698 5694 5689 5685 5682 5678 5675 5672 5669 5667 5665 5662 5660 5657 5654 5652 5649
5748 5747 5747 5746 5746 5744 5743 5742 5741 5740 5738 5737 5735 5733 5731 5729 5726 5724 5722 5719 5716 5713 5710 5706 5703 5700 5696 5692 5688 5685 5681 5677 5674 5672 5669 5666 5664 5661 5659 5656 5653 5651 5648